Historyczne dane pomiarowe

Dodano dane terminowe – wersja testowa.

Dane z okresu 1951-2019

Wersja bazy: 1.34 [2019-03-16, lista zmian], aktualizacja planowana na 2019-04-15

Dane meteo z obszaru Polski uzyskane na podstawie danych udostępnionych przez Instytut Meteorologii i Gospodarki Wodnej – Państwowy Instytut Badawczy.

 

Wybierz Datę:    

       

TemperaturaWilgotnośćWiatrCiśnienieOpadyŚniegCzas trwania zjawisk
 Stacja t tx tn tng RH VA  wxwx mslp ppp RRR   cm mm wxwxwxwxwxwxwx
2018-12-31 2.1 3.4 1.2 0.4 90.3 6.4- 4.0--1024.3 996.9 0.3 0.3 0.0x- 0.0-------
2018-12-30 3.6 5.6 2.6 2.3 95.1 7.5- 3.0--1019.1 992.0 5.0 3.2 1.8x- 1.1-------
2018-12-29 3.3 4.0 2.8 2.3 93.6 7.2- 2.8--1024.0 996.7 0.9 0.3 0.6x- 0.0-------
2018-12-28 4.7 5.8 3.3 2.5 93.1 7.9- 4.6--1018.9 991.9 1.3 1.3 0.0x- 0.0-------
2018-12-27 4.0 5.5 2.6 2.3 91.8 7.5- 3.8--1021.0 993.8 1.5 1.0 0.5x- 0.0-------
2018-12-26 3.0 3.8 0.1 -0.1 87.6 6.6- 5.1--1020.9 993.7 0.2 0.2 0.0x- 0.0-------
2018-12-25 -0.3 0.9 -1.8 -1.9 86.5 5.2- 3.8--1022.7 995.1 0.6 0.0 0.6x- 0.0-------
2018-12-24 1.1 4.1 -0.8 -1.1 85.1 5.7- 5.6--1013.6 986.4 0.1 0.1 0.0x- 0.0-------
2018-12-23 2.7 5.9 1.5 0.7 82.6 6.1- 3.9--1015.2 988.1 0.0 0.0 0.0x- 0.1-------
2018-12-22 4.3 7.0 0.8 -0.1 88.4 7.4- 5.6--1005.7 979.0 2.1 2.1 0.0x- 0.0-------
2018-12-21 0.5 1.6 -3.0 -3.0 85.6 5.4- 3.6--1017.5 990.1 2.5 0.0 2.5x- 0.2-------
2018-12-20 -3.7 -2.3 -5.6 -8.2 93.0 4.4- 2.8--1022.3 994.3 0.0 0.0 0.0x- 0.0-------
2018-12-19 -3.9 -1.4 -5.4 -7.2 88.3 4.0- 2.6--1029.11000.9 0.0 0.0 0.0x- 0.0-------
2018-12-18 -2.9 -0.3 -6.5-14.2 94.4 4.7- 1.0--1030.31002.2 0.0 0.0 0.0x- 0.0-------
2018-12-17 -3.6 -1.9 -4.6 -4.8 96.6 4.5- 1.6--1023.6 995.6 0.0 0.0 0.0x- 0.0-------
2018-12-16 -2.2 -1.2 -2.8 -2.8 93.3 4.9- 2.6--1020.9 993.1 0.4 0.4 0.0x- 0.0-------
2018-12-15 -1.4 -0.7 -1.7 -1.8 86.8 4.8- 3.3--1026.9 999.1 0.4 0.0 0.4x- 0.0-------
2018-12-14 -1.2 -0.7 -1.9 -2.0 93.5 5.3- 2.0--1025.8 998.0 0.0 0.0 0.0x- 0.0-------
2018-12-13 -0.5 0.0 -1.1 -1.1 96.1 5.7- 2.3--1022.4 994.8 0.0 0.0 0.0x- 0.0-------
2018-12-12 -1.0 0.9 -1.8 -3.1 97.6 5.6- 2.1--1019.4 991.8 0.3 0.0 0.3x- 3.4-------
2018-12-11 0.6 1.7 -0.3 -0.9 95.5 6.1- 2.4--1011.7 984.5 4.0 0.6 3.4x- 0.1-------
2018-12-10 2.8 4.2 0.7 -0.1 92.1 6.9- 3.6--1004.7 977.9 0.4 0.4 0.0x- 0.4-------
2018-12-09 2.4 4.2 0.0 -1.0 92.0 6.7- 4.0--1000.0 973.3 2.9 2.0 0.9x- 0.2-------
2018-12-08 2.5 6.1 0.9 0.7 95.3 7.0- 4.0--1006.2 979.3 2.7 2.7 0.0x- 0.0-------
2018-12-07 1.0 2.6 -2.0 -1.9 96.8 6.4- 4.1--1013.9 986.7 7.2 3.1 4.1x- 0.0-------
2018-12-06 -2.6 -1.2 -5.3 -6.8 98.1 5.0- 2.0--1026.5 998.6 1.5 0.0 1.5x- 0.0-------
2018-12-05 -0.1 5.5 -1.6 -2.4 89.0 5.4- 2.6--1026.5 998.8 0.0 0.0 0.0x- 5.8-------
2018-12-04 4.4 7.0 2.5 1.6 93.3 7.9- 3.6--1010.7 983.8 2.0 2.0 0.0x- 0.0-------
2018-12-03 2.8 6.8 -1.9 -1.9 88.0 6.6- 4.3--1008.1 981.2 0.6 0.6 0.0x- 3.9-------
2018-12-02 -1.2 1.9 -6.9 -9.0 75.6 4.2- 4.4--1015.9 988.4 2.8 0.0 2.8x- 6.3-------
2018-12-01 -8.7 -4.6-13.7-14.7 78.5 2.6- 2.4--1021.8 993.3 0.0 0.0 0.0x- 7.1-------
2018-11-30 -7.4 -3.7 -9.0 -9.6 66.6 2.3- 3.9--1030.91002.3 0.0 0.0 0.0x- 7.8-------
2018-11-29 -4.7 -1.8 -6.4 -7.1 73.4 3.1- 4.4--1037.41008.9 0.0 0.0 0.0x- 7.8-------
2018-11-28 -3.0 0.3 -4.6 -5.9 85.4 4.2- 2.5--1031.01002.9 0.0 0.0 0.0x- 6.0-------
2018-11-27 -2.3 -0.3 -3.5 -4.4 84.0 4.4- 3.3--1018.9 991.2 0.0 0.0 0.0x- 5.4-------
2018-11-26 1.5 5.1 -0.9 -0.8 93.3 6.4- 4.1--1011.6 984.5 0.0 0.0 0.0x- 0.0-------
2018-11-25 5.1 6.5 4.7 2.5 98.8 8.7- 1.8--1014.1 987.2 0.0 0.0 0.0x- 0.0-------
2018-11-24 2.6 6.4 -1.9 -1.7 95.6 7.1- 2.8--1018.4 991.2 1.3 0.4 0.9x- 0.2-------
2018-11-23 -2.0 -1.3 -2.6 -2.3 97.6 5.2- 2.1--1028.11000.1 0.0 0.0 0.0x- 0.0-------
2018-11-22 -1.1 1.0 -1.9 -1.7 86.0 4.9- 2.3--1027.1 999.3 0.0 0.0 0.0x- 1.1-------
2018-11-21 -0.6 0.1 -1.4 -1.3 86.9 5.1- 3.9--1024.1 996.5 0.0 0.0 0.0x- 0.0-------
2018-11-20 -1.0 0.1 -2.7 -3.6 81.3 4.6- 3.5--1024.3 996.5 0.6 0.0 0.6x- 2.6-------
2018-11-19 -1.1 -0.3 -2.2 -3.8 93.3 5.3- 3.0--1023.6 995.9 0.2 0.2 0.0x- 0.0-------
2018-11-18 -2.3 0.9 -5.3 -6.3 82.5 4.2- 1.6--1028.91000.9 0.5 0.4 0.1x- 3.7-------
2018-11-17 -1.5 3.4 -4.3 -5.5 76.4 4.1- 2.4--1039.31011.1 0.0 0.0 0.0x- 8.4-------
2018-11-16 2.1 6.0 0.4 -0.2 86.6 6.2- 2.4--1038.61010.8 0.0 0.0 0.0x- 0.3-------
2018-11-15 6.7 8.8 6.0 5.3 90.6 8.9- 3.3--1031.41004.2 0.4 0.2 0.2x- 0.0-------
2018-11-14 8.3 10.2 6.6 6.1 86.4 9.4- 3.9--1027.11000.2 0.4 0.0 0.4x- 0.3-------
2018-11-13 7.3 12.3 3.6 2.9 91.3 9.3- 2.9--1025.1 998.2 2.9 0.0 2.9x- 4.6-------
2018-11-12 7.2 14.2 2.0 0.3 86.8 8.8- 2.4--1025.2 998.3 0.0 0.0 0.0x- 7.8-------
2018-11-11 7.2 14.7 1.0 -0.9 85.9 8.6- 2.3--1018.8 992.0 0.0 0.0 0.0x- 8.2-------
2018-11-10 7.7 12.1 4.5 3.8 90.1 9.4- 2.1--1017.5 990.8 0.0 0.0 0.0x- 6.2-------
2018-11-09 5.7 10.4 1.5 1.5 97.8 9.0- 1.5--1021.2 994.2 0.0 0.0 0.0x- 2.1-------
2018-11-08 8.6 15.3 3.9 1.3 89.0 9.9- 1.6--1021.5 994.7 0.0 0.0 0.0x- 7.7-------
2018-11-07 10.9 16.8 8.1 7.5 83.9 10.7- 3.4--1019.8 993.4 0.0 0.0 0.0x- 7.8-------
2018-11-06 11.1 18.4 7.7 6.7 81.5 10.5- 3.3--1020.8 994.4 0.0 0.0 0.0x- 8.8-------
2018-11-05 12.4 17.4 8.8 9.5 88.3 12.5- 2.4--1021.3 994.9 0.0 0.0 0.0x- 5.6-------
2018-11-04 11.2 13.1 9.2 9.2 98.1 13.1- 2.3--1025.2 998.7 0.1 0.1 0.0x- 0.0-------
2018-11-03 11.2 15.0 9.8 9.8 98.3 13.1- 2.3--1026.5 999.9 0.1 0.0 0.1x- 0.9-------
2018-11-02 15.2 20.0 12.3 11.5 86.0 14.8- 2.4--1022.8 996.7 0.6 0.0 0.6x- 6.5-------
171.5 ms

 

Źródłem pochodzenia danych jest Instytut Meteorologii i Gospodarki Wodnej – Państwowy Instytut Badawczy. Dane Instytutu Meteorologii i Gospodarki Wodnej – Państwowego Instytutu Badawczego zostały przetworzone.

Dane źródłowe można odnaleźć na stronie https://dane.imgw.pl